ATLAS 5 CENTAUR DEB, 44662

Orbit data source: Space-Track

ATLAS 5 CENTAUR DEB, 44662 is space debris in HEO originally from a launch on Wed, 17 Oct 2018 UTC launched from the Air Force Eastern Test Range (AFETR). Debris objects in space refer to the collection of defunct objects orbiting the Earth. Examples of debris include non-operational satellites, rocket bodies, and fragments generated from explosions, collisions, or faulty payload assembly.

Loading next visibility...
Identifier
44662, 2018-079Y
Orbit
HEO
Country
Flag of USUS
Related business
Flag of USUnited Launch Alliance/Lockheed Martin (US)
Manufacturer
ULA Decatur
Mission
Spacecraft
Bus & Motor
Unknown
Mass
Unknown
Launch date (UTC)
2018-10-17 (8 years ago)
Launch vehicle
Unknown
Launch site
Air Force Eastern Test Range (AFETR)
Object type
Payload
Rocket body
Debris
Shape & HBR
Unknown shape, 1.1 m
Radar Cross Section
Medium (>0.1 m² and <1 m²)

Expand to show TLE details & history
Last TLE update: 3 days ago

TLE from 3 days ago
0 ATLAS 5 CENTAUR DEB
1 44662U 18079Y   26170.78542605 -.00000117  00000-0  00000-0 0  9990
2 44662  13.3194  27.6956 4703255 333.2563   8.7136  1.84813841 47601
Epoch: 2026-06-19T18:51Z
TLE epoch observation values (Epoch: 2026-06-19T18:51:00.810Z)
Latitude
0.00012°
Longitude
-163.07747°
Altitude
9,033.812 km
Speed
6.125 km/s
True Right ascension
01h 50m 44s
True Declination
0° 00' 00"
Sunlit
Object was in daylight at epoch
Visualization orbit readout
Latitude
Unknown
Longitude
Unknown
Altitude
Unknown
Speed
Unknown
Apparent Right ascension
Unknown
Apparent Declination
Unknown
Sunlit
N/A
Visualization observer readout
Local Sidereal Time
21:41:01
Azimuth
Unknown
Elevation
Unknown
Doppler factor
Unknown
Orbital elements
Apogee altitude
34,865.646 km
Perigee altitude
8,479.648 km
Semi-major axis
28,050.784 km
Eccentricity
0.47033
Inclination
13.3194°
RAAN
27.6956°
Arg. of periapsis
333.2563°
True anomaly
26.77259°
Mean anomaly
8.7136°
Eccentric anomaly
16.25791°
Mean motion
0.46198 °/min
Orbital period
779.25 mins
BSTAR
0
Loading maneuver chart data...
Computing Atmospheric mass density...

Documentation

Showing up to 5 results
|